* Astronomy

Members Login
Username 
 
Password 
    Remember Me  
Post Info TOPIC: Asteroid 2012 UU136


L

Posts: 131433
Date:
Asteroid 2012 UU136
Permalink  
 


Orbital elements:
2012 UU136                                          PHA, Earth MOID = 0.0275 AU
Epoch 2012 Sept. 30.0 TT = JDT 2456200.5                MPC
M  81.30155              (2000.0)            P               Q
n   0.78306868     Peri.  228.63021     -0.17689132     +0.92147201
a   1.1657430      Node    36.05641     -0.63192247     +0.16305354
e   0.2122757      Incl.   35.98449     -0.75457502     -0.35256614
P   1.26           H   21.3           G   0.15           U   8

MPEC 2012 - U86



__________________
Page 1 of 1  sorted by
 
Quick Reply

Please log in to post quick replies.



Create your own FREE Forum
Report Abuse
Powered by ActiveBoard